STARLINK-1875 (47160 NORAD) Tracking and Keplerian Element Data

This shows tracking and keplerian element data for the satellite.

Feedback or suggestion? Click here.




ElementValue
Catalog47160
NameSTARLINK-1875
Epoch Orbit180
Epoch Day99.91667824
Epoch Year2021
RAAN68.6652
Inclination53.0553
Eccentricity0.0001458
Argument of Perigee67.5874
Mean Anonmoly28.3499
Mean Motion15.06394926
Decay Rate-2.66E-06
L11 47160U 20088AQ 21099.91667824 -.00000266 00000-0 10650-5 0 9992
L22 47160 53.0553 68.6652 0001458 67.5874 28.3499 15.06394926 1808

Live tracking and technical data element details for STARLINK-1875 (NORAD 47160). STARLINK-1875 can be tracked NOW for your location showing map with azimuth and elevation plus other details from your city location.

Track the satellite on the map from your city or location and see movement details for azimuth, elevation, latitude, longitude, range, height, and movement on the map or in text.







IsCatalogInMostPopularTable: catalog: 47160, numindb: 46
Update: records affected: 1



GetName: 47160 STARLINK-1875

Hit Count: updated at: Sat, 10 Apr 2021 19:34:20 GMT